User: anonymous   Login
Location: Newsoms
(36.6240°N, 77.1250°W)
Time: 01:02:21
(UTC-04:00)
Language:

BREEZE-M DEB (TANK) - Orbit

View from above orbital plane
View from above orbital plane
View from above satellite
View from above satellite

Ground track
Ground track

The orbit data is extracted from the following two-line orbital elements,

1 29649U 06056B   17141.73983055 -.00000462 +00000-0 -45367-4 0  9994
2 29649 049.4796 253.0521 5365714 144.8638 266.6528 04.99551312186452
Epoch (UTC): 21 May 2017 17:45:21
Eccentricity: 0.5365714
inclination: 49.4796°
perigee height: 320 km
apogee height: 15833 km
right ascension of ascending node: 253.0521°
argument of perigee: 144.8638°
revolutions per day: 4.99551312
mean anomaly at epoch: 266.6528°
orbit number at epoch: 18645

The dashed part of the orbit path shows where the satellite is in the earth's shadow,  

DLR